Sexton Summit, OR

5:53 PM PDT on July 25, 2017 (GMT -0700)
Sexton Summit

Weather History for KSXT - June, 2013

Change the Weather History Date:

Monday, June 24, 2013

  Actual Average Record
Temperature  
Mean Temperature 46 °F -  
Max Temperature 53 °F 67 °F 93 °F (2017)
Min Temperature 42 °F 45 °F 37 °F (1999)
Degree Days  
Heating Degree Days 18    
Moisture  
Dew Point 46 °F    
Average Humidity 98    
Maximum Humidity 100    
Minimum Humidity 87    
Precipitation  
Precipitation 0.24 in - - ()
Sea Level Pressure  
Sea Level Pressure 29.74 in    
Wind  
Wind Speed 7 mph (SSW)    
Max Wind Speed 15 mph    
Max Gust Speed 25 mph    
Visibility 4 miles    
Events Fog , Rain    
Averages and records for this station are not official NWS values.
T = Trace of Precipitation, MM = Missing Value Source: NWS Daily Summary

Daily Weather History Graph

Daily Weather History Graph

Search for Another Location

Airport or City:

Trip Planner

Search our weather history database for the weather conditions in past years. The results will help you decide how hot, cold, wet, or windy it might be!

Date:

Astronomy

Jun. 24, 2013 Rise Set
Actual Time 5:36 AM PDT 8:55 PM PDT
Civil Twilight 5:01 AM PDT 9:30 PM PDT
Nautical Twilight 4:16 AM PDT 10:15 PM PDT
Astronomical Twilight 3:20 AM PDT 11:11 PM PDT
Moon 9:58 PM PDT (6/24) 7:13 AM PDT (6/24)
Length of Visible Light 16h 28m
Length of Day
15h 18m
Full, 97% of the Moon is Illuminated
Jun 24
Full
Jun 29
Last Quarter
Jul 8
New
Jul 15
First Quarter
Jul 22
Full

Hourly Weather History & Observations

Time (PDT) Temp. Windchill Dew Point Humidity Pressure Visibility Wind Dir Wind Speed Gust Speed Precip Events Conditions
12:09 AM 46.4 °F 42.4 °F 46.4 °F 100% 29.78 in 10.0 mi South 8.1 mph - N/A   Overcast
12:39 AM 46.4 °F 41.9 °F 46.4 °F 100% 29.77 in 10.0 mi SSW 9.2 mph - N/A   Overcast
12:56 AM 46.9 °F - 46.0 °F 97% 29.70 in 10.0 mi SSW 8.1 mph - N/A   Overcast
1:20 AM 46.4 °F 42.9 °F 46.4 °F 100% 29.77 in 10.0 mi South 6.9 mph - N/A   Overcast
1:36 AM 46.4 °F 43.5 °F 46.4 °F 100% 29.77 in 10.0 mi SSW 5.8 mph - N/A   Overcast
1:56 AM 46.9 °F - 45.0 °F 93% 29.70 in 10.0 mi SW 6.9 mph 16.1 mph N/A   Overcast
2:16 AM 46.4 °F 45.2 °F 44.6 °F 93% 29.77 in 10.0 mi Variable 3.5 mph - N/A   Overcast
2:45 AM 46.4 °F 45.2 °F 44.6 °F 93% 29.76 in 10.0 mi Variable 3.5 mph - N/A   Overcast
2:56 AM 46.9 °F - 44.1 °F 90% 29.69 in 10.0 mi Variable 5.8 mph - N/A   Overcast
3:56 AM 45.0 °F - 45.0 °F 100% 29.69 in 10.0 mi Calm Calm - 0.01 in Rain Light Rain
4:08 AM 44.6 °F 43.1 °F 44.6 °F 100% 29.75 in 6.0 mi Variable 3.5 mph - 0.01 in Rain Light Rain
4:13 AM 44.6 °F 40.7 °F 44.6 °F 100% 29.75 in 1.8 mi WSW 6.9 mph - 0.01 in Rain Light Rain
4:16 AM 44.6 °F 42.2 °F 44.6 °F 100% 29.75 in 1.2 mi WSW 4.6 mph - 0.01 in Rain Light Rain
4:25 AM 44.6 °F 40.7 °F 44.6 °F 100% 29.74 in 1.2 mi SW 6.9 mph - 0.02 in Rain Light Rain
4:27 AM 44.6 °F 40.2 °F 42.8 °F 93% 29.74 in 1.5 mi SSW 8.1 mph - 0.02 in Rain Light Rain
4:30 AM 44.6 °F 40.2 °F 42.8 °F 93% 29.74 in 3.0 mi SW 8.1 mph - 0.03 in Rain Light Rain
4:56 AM 43.0 °F 37.7 °F 42.1 °F 97% 29.68 in 7.0 mi SSW 9.2 mph - 0.05 in Rain Light Rain
5:34 AM 42.8 °F 38.0 °F 42.8 °F 100% 29.73 in 1.2 mi South 8.1 mph - 0.02 in Rain Light Rain
5:41 AM 42.8 °F 38.6 °F 42.8 °F 100% 29.73 in 0.2 mi South 6.9 mph - 0.02 in Fog , Rain Light Rain
5:51 AM 42.8 °F 38.6 °F 42.8 °F 100% 29.73 in 0.8 mi South 6.9 mph - 0.02 in Rain Light Rain
5:56 AM 43.0 °F 40.3 °F 43.0 °F 100% 29.68 in 1.2 mi South 4.6 mph - 0.02 in Rain Light Rain
6:01 AM 42.8 °F 39.3 °F 42.8 °F 100% 29.73 in 2.0 mi South 5.8 mph - 0.01 in Rain Light Rain
6:08 AM 42.8 °F 39.3 °F 42.8 °F 100% 29.73 in 4.0 mi SSW 5.8 mph - 0.01 in Rain Light Rain
6:45 AM 42.8 °F 40.1 °F 42.8 °F 100% 29.73 in 5.0 mi Variable 4.6 mph - 0.04 in Rain Light Rain
6:56 AM 43.0 °F 39.5 °F 42.1 °F 97% 29.68 in 5.0 mi WSW 5.8 mph - 0.04 in   Overcast
7:37 AM 42.8 °F 41.1 °F 42.8 °F 100% 29.74 in 2.5 mi Variable 3.5 mph - 0.01 in   Overcast
7:39 AM 42.8 °F 39.3 °F 42.8 °F 100% 29.74 in 1.2 mi Variable 5.8 mph - 0.01 in   Overcast
7:56 AM 43.0 °F - 43.0 °F 100% 29.70 in 0.8 mi Calm Calm - 0.01 in   Overcast
8:07 AM 42.8 °F 38.6 °F 42.8 °F 100% 29.74 in 0.2 mi South 6.9 mph - N/A Fog Fog
8:24 AM 42.8 °F 39.3 °F 42.8 °F 100% 29.74 in 0.2 mi Variable 5.8 mph - N/A Fog Fog
8:44 AM 42.8 °F 39.3 °F 42.8 °F 100% 29.74 in 0.2 mi South 5.8 mph - N/A Fog Fog
8:56 AM 43.0 °F 39.5 °F 43.0 °F 100% 29.71 in 0.2 mi South 5.8 mph - N/A Fog Fog
9:56 AM 44.1 °F 38.1 °F 44.1 °F 100% 29.72 in 0.5 mi SW 11.5 mph - N/A Fog Fog
10:00 AM 44.6 °F 38.4 °F 42.8 °F 93% 29.75 in 1.5 mi SW 12.7 mph - N/A   Overcast
10:02 AM 44.6 °F 39.2 °F 42.8 °F 93% 29.75 in 3.0 mi SW 10.4 mph 17.3 mph N/A   Overcast
10:05 AM 44.6 °F 39.2 °F 44.6 °F 100% 29.75 in 1.8 mi SW 10.4 mph 17.3 mph N/A   Overcast
10:14 AM 44.6 °F 39.2 °F 44.6 °F 100% 29.75 in 0.5 mi SW 10.4 mph 16.1 mph N/A Fog Fog
10:28 AM 44.6 °F 40.2 °F 44.6 °F 100% 29.75 in 0.2 mi SSW 8.1 mph - N/A Fog Fog
10:40 AM 44.6 °F 40.2 °F 44.6 °F 100% 29.75 in 0.2 mi South 8.1 mph - N/A Fog Fog
10:56 AM 45.0 °F 42.6 °F 45.0 °F 100% 29.73 in 0.2 mi South 4.6 mph - N/A Fog Fog
11:47 AM 46.4 °F 42.4 °F 44.6 °F 93% 29.75 in 1.0 mi South 8.1 mph 16.1 mph N/A   Overcast
11:52 AM 46.4 °F 42.9 °F 46.4 °F 100% 29.75 in 0.2 mi South 6.9 mph - N/A Fog Fog
11:56 AM 46.0 °F 41.9 °F 46.0 °F 100% 29.72 in 0.2 mi South 8.1 mph - N/A Fog Fog
12:01 PM 46.4 °F 41.5 °F 46.4 °F 100% 29.75 in 0.5 mi South 10.4 mph 16.1 mph N/A Fog Fog
12:08 PM 46.4 °F 42.9 °F 46.4 °F 100% 29.75 in 1.0 mi Variable 6.9 mph 16.1 mph N/A   Mist
12:19 PM 48.2 °F - 48.2 °F 100% 29.75 in 4.0 mi South 9.2 mph 17.3 mph N/A   Overcast
12:56 PM 48.9 °F - 46.9 °F 93% 29.72 in 10.0 mi South 10.4 mph 17.3 mph N/A   Overcast
1:04 PM 50.0 °F - 46.4 °F 87% 29.76 in 10.0 mi South 11.5 mph 17.3 mph N/A   Overcast
1:34 PM 51.8 °F - 48.2 °F 88% 29.76 in 10.0 mi Variable 6.9 mph 16.1 mph N/A   Overcast
1:56 PM 50.0 °F - 46.9 °F 89% 29.71 in 10.0 mi South 8.1 mph - N/A   Overcast
2:12 PM 50.0 °F - 46.4 °F 87% 29.76 in 10.0 mi South 8.1 mph - N/A   Overcast
2:34 PM 48.2 °F - 48.2 °F 100% 29.76 in 2.5 mi South 9.2 mph - 0.01 in Rain Light Rain
2:38 PM 48.2 °F - 48.2 °F 100% 29.76 in 1.5 mi South 9.2 mph - 0.02 in Rain Light Rain
2:43 PM 48.2 °F - 48.2 °F 100% 29.76 in 1.0 mi South 8.1 mph - 0.03 in Rain Light Rain
2:53 PM 48.2 °F - 48.2 °F 100% 29.76 in 1.5 mi South 6.9 mph - 0.03 in   Overcast
2:56 PM 48.9 °F - 48.0 °F 97% 29.73 in 2.5 mi SSW 6.9 mph - 0.03 in   Overcast
3:07 PM 48.2 °F - 48.2 °F 100% 29.76 in 1.8 mi Variable 5.8 mph - N/A   Overcast
3:16 PM 50.0 °F - 48.2 °F 94% 29.77 in 2.5 mi Variable 5.8 mph - N/A   Overcast
3:23 PM 50.0 °F - 48.2 °F 94% 29.77 in 10.0 mi Variable 3.5 mph - N/A   Overcast
3:49 PM 50.0 °F - 48.2 °F 94% 29.77 in 10.0 mi Variable 3.5 mph - N/A   Overcast
3:56 PM 50.0 °F - 48.0 °F 93% 29.73 in 10.0 mi Variable 5.8 mph - N/A   Overcast
4:26 PM 48.2 °F - 48.2 °F 100% 29.77 in 1.5 mi South 6.9 mph - 0.00 in   Overcast
4:28 PM 48.2 °F - 48.2 °F 100% 29.77 in 0.8 mi South 5.8 mph - 0.00 in   Overcast
4:37 PM 48.2 °F - 48.2 °F 100% 29.77 in 0.2 mi South 5.8 mph - 0.00 in Fog Fog
4:56 PM 48.0 °F - 48.0 °F 100% 29.75 in 0.2 mi South 6.9 mph - 0.02 in Fog , Rain Light Rain
5:25 PM 48.2 °F - 48.2 °F 100% 29.76 in 0.2 mi SSE 6.9 mph - 0.02 in Fog , Rain Light Rain
5:56 PM 48.9 °F - 48.9 °F 100% 29.73 in 0.2 mi South 11.5 mph 18.4 mph 0.03 in Fog Fog
6:56 PM 50.0 °F - 50.0 °F 100% 29.73 in 0.2 mi South 10.4 mph 25.3 mph N/A Fog Fog
7:56 PM 50.0 °F - 50.0 °F 100% 29.73 in 0.2 mi South 10.4 mph 20.7 mph N/A Fog Fog
8:56 PM 50.0 °F - 50.0 °F 100% 29.73 in 0.2 mi South 11.5 mph 18.4 mph 0.00 in Fog , Rain Light Rain
9:56 PM 50.0 °F - 50.0 °F 100% 29.74 in 0.2 mi South 12.7 mph 21.9 mph 0.02 in Fog , Rain Light Rain
10:56 PM 50.0 °F - 50.0 °F 100% 29.73 in 0.2 mi South 15.0 mph 24.2 mph 0.01 in Fog Fog
11:56 PM 48.9 °F - 48.9 °F 100% 29.72 in 0.2 mi SSW 15.0 mph 25.3 mph N/A Fog Fog